Time,TemperatureF,DewpointF,PressureIn,WindDirection,WindDirectionDegrees,WindSpeedMPH,WindSpeedGustMPH,Humidity,HourlyPrecipIn,Conditions,Clouds,dailyrainin,SoftwareType,DateUTC
2013-10-09 00:05:00,62.4,51.7,30.02,SE,136,0.0,0.0,68,0.00,,,0.00,Wunderground v.1.15,2013-10-09 05:05:00,
2013-10-09 00:15:00,62.2,51.5,30.02,SE,136,0.0,0.0,68,0.00,,,0.00,Wunderground v.1.15,2013-10-09 05:15:00,
2013-10-09 00:25:00,61.7,51.8,30.01,SE,136,0.0,0.0,70,0.00,,,0.00,Wunderground v.1.15,2013-10-09 05:25:00,
2013-10-09 00:30:00,61.6,52.1,30.01,SE,136,0.0,0.0,71,0.00,,,0.00,Wunderground v.1.15,2013-10-09 05:30:00,
2013-10-09 00:40:00,61.0,51.9,30.01,SE,136,0.0,0.0,72,0.00,,,0.00,Wunderground v.1.15,2013-10-09 05:40:00,
2013-10-09 00:50:00,60.2,51.9,30.01,SE,136,0.0,0.0,74,0.00,,,0.00,Wunderground v.1.15,2013-10-09 05:50:00,
2013-10-09 01:00:00,59.7,52.1,30.01,SE,137,0.0,0.0,76,0.00,,,0.00,Wunderground v.1.15,2013-10-09 06:00:00,
2013-10-09 01:05:00,59.5,51.9,30.02,SE,136,0.0,0.0,76,0.00,,,0.00,Wunderground v.1.15,2013-10-09 06:05:00,
2013-10-09 01:14:00,59.1,51.9,30.02,SE,136,0.0,0.0,77,0.00,,,0.00,Wunderground v.1.15,2013-10-09 06:14:00,
2013-10-09 01:20:00,58.9,52.1,30.01,SE,136,0.0,0.0,78,0.00,,,0.00,Wunderground v.1.15,2013-10-09 06:20:00,
2013-10-09 01:29:00,58.9,52.4,30.01,SE,136,0.0,0.0,79,0.00,,,0.00,Wunderground v.1.15,2013-10-09 06:29:00,
2013-10-09 01:35:00,58.8,52.3,30.01,SE,136,0.0,0.0,79,0.00,,,0.00,Wunderground v.1.15,2013-10-09 06:35:00,
2013-10-09 01:45:00,58.8,52.6,30.01,SE,137,0.0,0.0,80,0.00,,,0.00,Wunderground v.1.15,2013-10-09 06:45:00,
2013-10-09 01:50:00,58.7,52.9,30.01,SE,136,0.0,0.0,81,0.00,,,0.00,Wunderground v.1.15,2013-10-09 06:50:00,
2013-10-09 01:55:00,58.8,53.3,30.01,SE,136,0.0,0.0,82,0.00,,,0.00,Wunderground v.1.15,2013-10-09 06:55:00,
2013-10-09 02:04:00,58.8,53.3,30.01,SE,137,0.0,0.0,82,0.00,,,0.00,Wunderground v.1.15,2013-10-09 07:04:00,
2013-10-09 02:10:00,58.9,53.7,30.01,SE,136,0.0,0.0,83,0.00,,,0.00,Wunderground v.1.15,2013-10-09 07:10:00,
2013-10-09 02:19:00,58.7,53.5,30.01,SE,136,0.0,0.0,83,0.00,,,0.00,Wunderground v.1.15,2013-10-09 07:19:00,
2013-10-09 02:25:00,58.3,53.2,30.01,SE,136,0.0,0.0,83,0.00,,,0.00,Wunderground v.1.15,2013-10-09 07:25:00,
2013-10-09 02:34:00,57.4,52.9,30.01,SE,136,0.0,0.0,85,0.00,,,0.00,Wunderground v.1.15,2013-10-09 07:34:00,
2013-10-09 02:40:00,57.1,53.0,30.01,SE,136,0.0,0.0,86,0.00,,,0.00,Wunderground v.1.15,2013-10-09 07:40:00,
2013-10-09 02:49:00,56.8,53.0,30.01,SE,136,0.0,0.0,87,0.00,,,0.00,Wunderground v.1.15,2013-10-09 07:49:00,
2013-10-09 02:55:00,56.6,52.8,30.01,SE,137,0.0,0.0,87,0.00,,,0.00,Wunderground v.1.15,2013-10-09 07:55:00,
2013-10-09 03:04:00,56.8,53.6,30.01,SE,136,0.0,0.0,89,0.00,,,0.00,Wunderground v.1.15,2013-10-09 08:04:00,
2013-10-09 03:10:00,56.8,53.6,30.01,SE,136,0.0,0.0,89,0.00,,,0.00,Wunderground v.1.15,2013-10-09 08:10:00,
2013-10-09 03:19:00,56.5,53.3,30.00,SE,136,0.0,0.0,89,0.00,,,0.00,Wunderground v.1.15,2013-10-09 08:19:00,
2013-10-09 03:25:00,56.3,53.1,30.00,SE,136,0.0,0.0,89,0.00,,,0.00,Wunderground v.1.15,2013-10-09 08:25:00,
2013-10-09 03:34:00,56.3,53.7,30.00,SE,136,0.0,0.0,91,0.00,,,0.00,Wunderground v.1.15,2013-10-09 08:34:00,
2013-10-09 03:40:00,56.2,53.6,30.00,SE,136,0.0,0.0,91,0.00,,,0.00,Wunderground v.1.15,2013-10-09 08:40:00,
2013-10-09 03:49:00,56.0,53.7,30.00,SE,136,0.0,0.0,92,0.00,,,0.00,Wunderground v.1.15,2013-10-09 08:49:00,
2013-10-09 03:55:00,56.0,53.7,30.00,SE,136,0.0,0.0,92,0.00,,,0.00,Wunderground v.1.15,2013-10-09 08:55:00,
2013-10-09 04:04:00,55.9,53.6,30.00,SE,136,0.0,0.0,92,0.00,,,0.00,Wunderground v.1.15,2013-10-09 09:04:00,
2013-10-09 04:10:00,55.8,53.5,30.00,SE,137,0.0,0.0,92,0.00,,,0.00,Wunderground v.1.15,2013-10-09 09:10:00,
2013-10-09 04:19:00,55.6,53.6,30.00,SE,137,0.0,0.0,93,0.00,,,0.00,Wunderground v.1.15,2013-10-09 09:19:00,
2013-10-09 04:25:00,55.9,54.2,30.00,SE,136,0.0,0.0,94,0.00,,,0.00,Wunderground v.1.15,2013-10-09 09:25:00,
2013-10-09 04:35:00,56.5,54.8,30.00,SE,137,0.0,0.0,94,0.00,,,0.00,Wunderground v.1.15,2013-10-09 09:35:00,
2013-10-09 04:40:00,56.6,54.9,30.00,SE,136,0.0,0.0,94,0.00,,,0.00,Wunderground v.1.15,2013-10-09 09:40:00,
2013-10-09 04:49:00,56.7,55.0,30.00,SE,136,0.0,0.0,94,0.00,,,0.00,Wunderground v.1.15,2013-10-09 09:49:00,
2013-10-09 04:55:00,56.7,55.0,30.01,SE,136,0.0,0.0,94,0.00,,,0.00,Wunderground v.1.15,2013-10-09 09:55:00,
2013-10-09 05:05:00,56.7,55.0,30.01,SE,136,0.0,0.0,94,0.00,,,0.00,Wunderground v.1.15,2013-10-09 10:05:00,
2013-10-09 05:10:00,56.6,54.9,30.01,SE,137,0.0,0.0,94,0.00,,,0.00,Wunderground v.1.15,2013-10-09 10:10:00,
2013-10-09 05:20:00,56.3,54.6,30.01,SE,136,0.0,0.0,94,0.00,,,0.00,Wunderground v.1.15,2013-10-09 10:20:00,
2013-10-09 05:30:00,56.1,54.4,30.01,SE,137,0.0,0.0,94,0.00,,,0.00,Wunderground v.1.15,2013-10-09 10:30:00,
2013-10-09 05:39:00,56.1,54.7,30.01,SE,136,0.0,0.0,95,0.00,,,0.00,Wunderground v.1.15,2013-10-09 10:39:00,
2013-10-09 05:45:00,56.3,54.9,30.01,SE,136,0.0,0.0,95,0.00,,,0.00,Wunderground v.1.15,2013-10-09 10:45:00,
2013-10-09 05:55:00,56.4,55.0,30.02,SE,136,0.0,0.0,95,0.00,,,0.00,Wunderground v.1.15,2013-10-09 10:55:00,
2013-10-09 06:05:00,56.3,54.9,30.02,SE,136,0.0,0.0,95,0.00,,,0.00,Wunderground v.1.15,2013-10-09 11:05:00,
2013-10-09 06:14:00,56.1,54.7,30.02,SE,137,0.0,0.0,95,0.00,,,0.00,Wunderground v.1.15,2013-10-09 11:14:00,
2013-10-09 06:20:00,56.1,55.0,30.02,SE,136,0.0,0.0,96,0.00,,,0.00,Wunderground v.1.15,2013-10-09 11:20:00,
2013-10-09 06:30:00,56.1,55.0,30.02,SE,136,0.0,0.0,96,0.00,,,0.00,Wunderground v.1.15,2013-10-09 11:30:00,
2013-10-09 06:39:00,55.9,54.8,30.03,SE,137,0.0,0.0,96,0.00,,,0.00,Wunderground v.1.15,2013-10-09 11:39:00,
2013-10-09 06:45:00,55.8,54.7,30.02,SE,136,0.0,0.0,96,0.00,,,0.00,Wunderground v.1.15,2013-10-09 11:45:00,
2013-10-09 06:55:00,55.8,54.7,30.03,SE,136,0.0,0.0,96,0.00,,,0.00,Wunderground v.1.15,2013-10-09 11:55:00,
2013-10-09 07:00:00,55.9,54.8,30.03,SE,137,0.0,0.0,96,0.00,,,0.00,Wunderground v.1.15,2013-10-09 12:00:00,
2013-10-09 07:09:00,56.2,55.4,30.03,SE,137,0.0,0.0,97,0.00,,,0.00,Wunderground v.1.15,2013-10-09 12:09:00,
2013-10-09 07:15:00,56.2,55.1,30.03,SE,137,0.0,0.0,96,0.00,,,0.00,Wunderground v.1.15,2013-10-09 12:15:00,
2013-10-09 07:24:00,56.1,55.0,30.03,SE,137,0.0,0.0,96,0.00,,,0.00,Wunderground v.1.15,2013-10-09 12:24:00,
2013-10-09 07:30:00,56.0,54.9,30.03,SE,136,0.0,0.0,96,0.00,,,0.00,Wunderground v.1.15,2013-10-09 12:30:00,
2013-10-09 07:39:00,55.8,54.7,30.03,SE,137,0.0,0.0,96,0.00,,,0.00,Wunderground v.1.15,2013-10-09 12:39:00,
2013-10-09 07:45:00,55.4,54.3,30.03,SE,136,0.0,0.0,96,0.00,,,0.00,Wunderground v.1.15,2013-10-09 12:45:00,
2013-10-09 07:54:00,55.6,54.8,30.04,SE,136,0.0,0.0,97,0.00,,,0.00,Wunderground v.1.15,2013-10-09 12:54:00,
2013-10-09 08:00:00,55.7,54.9,30.04,SE,136,0.0,0.0,97,0.00,,,0.00,Wunderground v.1.15,2013-10-09 13:00:00,
2013-10-09 08:09:00,55.9,55.1,30.04,SE,136,0.0,0.0,97,0.00,,,0.00,Wunderground v.1.15,2013-10-09 13:09:00,
2013-10-09 08:15:00,56.0,55.2,30.04,SE,136,0.0,0.0,97,0.00,,,0.00,Wunderground v.1.15,2013-10-09 13:15:00,
2013-10-09 08:24:00,56.7,55.9,30.05,SE,136,0.0,0.0,97,0.00,,,0.00,Wunderground v.1.15,2013-10-09 13:24:00,
2013-10-09 08:30:00,56.9,56.1,30.05,SE,137,0.0,0.0,97,0.00,,,0.00,Wunderground v.1.15,2013-10-09 13:30:00,
2013-10-09 08:39:00,57.6,57.0,30.05,SE,136,0.0,0.0,98,0.00,,,0.00,Wunderground v.1.15,2013-10-09 13:39:00,
2013-10-09 08:45:00,57.9,57.3,30.06,SE,136,0.0,0.0,98,0.00,,,0.00,Wunderground v.1.15,2013-10-09 13:45:00,
2013-10-09 08:54:00,59.2,58.6,30.06,SE,136,0.0,0.0,98,0.00,,,0.00,Wunderground v.1.15,2013-10-09 13:54:00,
2013-10-09 09:00:00,59.8,59.2,30.06,SE,136,0.0,0.0,98,0.00,,,0.00,Wunderground v.1.15,2013-10-09 14:00:00,
2013-10-09 09:05:00,60.2,59.6,30.06,SE,136,0.0,0.0,98,0.00,,,0.00,Wunderground v.1.15,2013-10-09 14:05:00,
2013-10-09 09:15:00,61.1,60.5,30.06,SE,131,0.0,0.0,98,0.00,,,0.00,Wunderground v.1.15,2013-10-09 14:15:00,
2013-10-09 09:25:00,62.0,61.4,30.07,NW,321,0.0,0.0,98,0.00,,,0.00,Wunderground v.1.15,2013-10-09 14:25:00,
2013-10-09 09:34:00,63.4,61.9,30.07,NW,314,0.0,0.0,95,0.00,,,0.00,Wunderground v.1.15,2013-10-09 14:34:00,
2013-10-09 09:40:00,64.1,62.0,30.07,NW,314,0.0,0.0,93,0.00,,,0.00,Wunderground v.1.15,2013-10-09 14:40:00,
2013-10-09 09:49:00,65.3,62.0,30.07,NW,310,0.0,0.0,89,0.00,,,0.00,Wunderground v.1.15,2013-10-09 14:49:00,
2013-10-09 09:55:00,66.0,62.0,30.07,West,273,0.0,0.0,87,0.00,,,0.00,Wunderground v.1.15,2013-10-09 14:55:00,
2013-10-09 10:04:00,67.0,62.3,30.08,SSW,212,0.0,2.0,85,0.00,,,0.00,Wunderground v.1.15,2013-10-09 15:04:00,
2013-10-09 10:10:00,67.4,62.4,30.07,WSW,256,0.0,0.0,84,0.00,,,0.00,Wunderground v.1.15,2013-10-09 15:10:00,
2013-10-09 10:20:00,68.2,63.2,30.08,South,177,0.0,0.0,84,0.00,,,0.00,Wunderground v.1.15,2013-10-09 15:20:00,
2013-10-09 10:25:00,68.9,63.5,30.08,SSW,205,0.0,0.0,83,0.00,,,0.00,Wunderground v.1.15,2013-10-09 15:25:00,
2013-10-09 10:34:00,69.9,63.8,30.08,SE,130,0.0,1.0,81,0.00,,,0.00,Wunderground v.1.15,2013-10-09 15:34:00,
2013-10-09 10:40:00,70.1,63.6,30.08,WNW,291,0.0,1.0,80,0.00,,,0.00,Wunderground v.1.15,2013-10-09 15:40:00,
2013-10-09 10:49:00,71.0,64.2,30.08,West,262,1.0,1.0,79,0.00,,,0.00,Wunderground v.1.15,2013-10-09 15:49:00,
2013-10-09 11:00:00,72.4,64.4,30.08,SSW,206,1.0,1.0,76,0.00,,,0.00,Wunderground v.1.15,2013-10-09 16:00:00,
2013-10-09 11:09:00,73.3,65.3,30.08,South,188,1.0,1.0,76,0.00,,,0.00,Wunderground v.1.15,2013-10-09 16:09:00,
2013-10-09 11:15:00,73.4,64.6,30.08,South,186,1.0,1.0,74,0.00,,,0.00,Wunderground v.1.15,2013-10-09 16:15:00,
2013-10-09 11:25:00,73.9,65.1,30.07,SW,231,1.0,1.0,74,0.00,,,0.00,Wunderground v.1.15,2013-10-09 16:25:00,
2013-10-09 11:34:00,74.3,65.1,30.08,NW,304,2.0,3.0,73,0.00,,,0.00,Wunderground v.1.15,2013-10-09 16:34:00,
2013-10-09 11:40:00,74.7,65.5,30.07,SSE,158,2.0,2.0,73,0.00,,,0.00,Wunderground v.1.15,2013-10-09 16:40:00,
2013-10-09 11:49:00,76.1,66.0,30.07,NE,53,1.0,1.0,71,0.00,,,0.00,Wunderground v.1.15,2013-10-09 16:49:00,
2013-10-09 11:55:00,76.5,65.1,30.07,East,99,1.0,2.0,68,0.00,,,0.00,Wunderground v.1.15,2013-10-09 16:55:00,
2013-10-09 12:04:00,77.0,65.2,30.07,ESE,117,2.0,3.0,67,0.00,,,0.00,Wunderground v.1.15,2013-10-09 17:04:00,
2013-10-09 12:10:00,77.5,65.7,30.07,West,278,1.0,1.0,67,0.00,,,0.00,Wunderground v.1.15,2013-10-09 17:10:00,
2013-10-09 12:19:00,78.7,65.0,30.07,ENE,78,1.0,1.0,63,0.00,,,0.00,Wunderground v.1.15,2013-10-09 17:19:00,
2013-10-09 12:25:00,78.6,64.9,30.07,West,278,2.0,2.0,63,0.00,,,0.00,Wunderground v.1.15,2013-10-09 17:25:00,
2013-10-09 12:34:00,79.5,64.9,30.06,WSW,243,2.0,2.0,61,0.00,,,0.00,Wunderground v.1.15,2013-10-09 17:34:00,
2013-10-09 12:40:00,79.6,64.5,30.06,WSW,252,2.0,3.0,60,0.00,,,0.00,Wunderground v.1.15,2013-10-09 17:40:00,
2013-10-09 12:49:00,79.9,63.8,30.06,West,262,1.0,1.0,58,0.00,,,0.00,Wunderground v.1.15,2013-10-09 17:49:00,
2013-10-09 12:55:00,80.3,65.1,30.05,South,170,1.0,1.0,60,0.00,,,0.00,Wunderground v.1.15,2013-10-09 17:55:00,
2013-10-09 13:04:00,80.8,64.6,30.05,East,89,1.0,2.0,58,0.00,,,0.00,Wunderground v.1.15,2013-10-09 18:04:00,
2013-10-09 13:10:00,80.4,63.8,30.05,East,98,2.0,2.0,57,0.00,,,0.00,Wunderground v.1.15,2013-10-09 18:10:00,
2013-10-09 13:19:00,80.7,64.5,30.04,NW,309,2.0,2.0,58,0.00,,,0.00,Wunderground v.1.15,2013-10-09 18:19:00,
2013-10-09 13:25:00,81.1,64.9,30.04,ESE,115,1.0,3.0,58,0.00,,,0.00,Wunderground v.1.15,2013-10-09 18:25:00,
2013-10-09 13:34:00,81.6,64.4,30.04,SE,133,2.0,2.0,56,0.00,,,0.00,Wunderground v.1.15,2013-10-09 18:34:00,
2013-10-09 13:40:00,82.3,65.5,30.03,NE,46,1.0,1.0,57,0.00,,,0.00,Wunderground v.1.15,2013-10-09 18:40:00,
2013-10-09 13:49:00,82.4,65.1,30.03,WSW,256,2.0,2.0,56,0.00,,,0.00,Wunderground v.1.15,2013-10-09 18:49:00,
2013-10-09 13:55:00,82.7,64.4,30.02,WNW,295,2.0,2.0,54,0.00,,,0.00,Wunderground v.1.15,2013-10-09 18:55:00,
2013-10-09 14:04:00,82.6,63.2,30.02,West,269,2.0,3.0,52,0.00,,,0.00,Wunderground v.1.15,2013-10-09 19:04:00,
2013-10-09 14:10:00,82.9,63.5,30.01,South,189,2.0,2.0,52,0.00,,,0.00,Wunderground v.1.15,2013-10-09 19:10:00,
2013-10-09 14:19:00,83.1,64.2,30.01,ESE,110,2.0,3.0,53,0.00,,,0.00,Wunderground v.1.15,2013-10-09 19:19:00,
2013-10-09 14:35:00,83.6,62.4,30.00,SW,233,1.0,2.0,49,0.00,,,0.00,Wunderground v.1.15,2013-10-09 19:35:00,
2013-10-09 14:45:00,83.3,62.1,30.00,ESE,122,2.0,2.0,49,0.00,,,0.00,Wunderground v.1.15,2013-10-09 19:45:00,
2013-10-09 14:55:00,83.6,63.0,30.00,West,260,1.0,1.0,50,0.00,,,0.00,Wunderground v.1.15,2013-10-09 19:55:00,
2013-10-09 15:04:00,83.6,63.6,29.99,WSW,245,2.0,3.0,51,0.00,,,0.00,Wunderground v.1.15,2013-10-09 20:04:00,
2013-10-09 15:10:00,83.8,63.7,29.99,West,274,2.0,2.0,51,0.00,,,0.00,Wunderground v.1.15,2013-10-09 20:10:00,
2013-10-09 15:19:00,84.0,64.5,29.99,NW,319,1.0,1.0,52,0.00,,,0.00,Wunderground v.1.15,2013-10-09 20:19:00,
2013-10-09 15:30:00,84.3,63.6,29.99,NE,39,1.0,1.0,50,0.00,,,0.00,Wunderground v.1.15,2013-10-09 20:30:00,
2013-10-09 15:40:00,84.9,64.8,29.98,ENE,73,0.0,1.0,51,0.00,,,0.00,Wunderground v.1.15,2013-10-09 20:40:00,
2013-10-09 15:50:00,85.0,64.3,29.98,WSW,240,1.0,1.0,50,0.00,,,0.00,Wunderground v.1.15,2013-10-09 20:50:00,
2013-10-09 16:00:00,84.8,64.7,29.98,ENE,65,1.0,1.0,51,0.00,,,0.00,Wunderground v.1.15,2013-10-09 21:00:00,
2013-10-09 16:09:00,84.4,64.3,29.97,East,94,2.0,2.0,51,0.00,,,0.00,Wunderground v.1.15,2013-10-09 21:09:00,
2013-10-09 16:15:00,84.4,64.3,29.98,ESE,118,2.0,3.0,51,0.00,,,0.00,Wunderground v.1.15,2013-10-09 21:15:00,
2013-10-09 16:24:00,84.3,63.6,29.97,ENE,72,1.0,1.0,50,0.00,,,0.00,Wunderground v.1.15,2013-10-09 21:24:00,
2013-10-09 16:30:00,84.3,63.6,29.97,ESE,107,1.0,1.0,50,0.00,,,0.00,Wunderground v.1.15,2013-10-09 21:30:00,
2013-10-09 16:39:00,84.2,63.5,29.97,West,267,2.0,2.0,50,0.00,,,0.00,Wunderground v.1.15,2013-10-09 21:39:00,
2013-10-09 16:45:00,84.5,63.2,29.97,West,275,1.0,2.0,49,0.00,,,0.00,Wunderground v.1.15,2013-10-09 21:45:00,
2013-10-09 16:54:00,85.4,64.6,29.97,WNW,293,1.0,1.0,50,0.00,,,0.00,Wunderground v.1.15,2013-10-09 21:54:00,
2013-10-09 17:00:00,85.0,63.1,29.96,SE,135,1.0,1.0,48,0.00,,,0.00,Wunderground v.1.15,2013-10-09 22:00:00,
2013-10-09 17:09:00,84.2,62.4,29.96,SE,135,1.0,1.0,48,0.00,,,0.00,Wunderground v.1.15,2013-10-09 22:09:00,
2013-10-09 17:20:00,83.8,62.6,29.96,East,98,1.0,1.0,49,0.00,,,0.00,Wunderground v.1.15,2013-10-09 22:20:00,
2013-10-09 17:30:00,83.0,62.4,29.96,East,80,2.0,2.0,50,0.00,,,0.00,Wunderground v.1.15,2013-10-09 22:30:00,
2013-10-09 17:39:00,82.7,63.3,29.96,ESE,123,1.0,2.0,52,0.00,,,0.00,Wunderground v.1.15,2013-10-09 22:39:00,
2013-10-09 17:45:00,82.5,63.1,29.96,SE,129,1.0,2.0,52,0.00,,,0.00,Wunderground v.1.15,2013-10-09 22:45:00,
2013-10-09 17:55:00,82.2,62.3,29.96,ESE,121,1.0,1.0,51,0.00,,,0.00,Wunderground v.1.15,2013-10-09 22:55:00,
2013-10-09 18:05:00,81.9,62.0,29.96,ESE,114,1.0,1.0,51,0.00,,,0.00,Wunderground v.1.15,2013-10-09 23:05:00,
2013-10-09 18:15:00,81.5,62.7,29.96,ESE,116,1.0,1.0,53,0.00,,,0.00,Wunderground v.1.15,2013-10-09 23:15:00,
2013-10-09 18:24:00,81.0,62.8,29.96,East,96,0.0,1.0,54,0.00,,,0.00,Wunderground v.1.15,2013-10-09 23:24:00,
2013-10-09 18:30:00,80.8,62.6,29.95,SSE,165,0.0,0.0,54,0.00,,,0.00,Wunderground v.1.15,2013-10-09 23:30:00,
2013-10-09 18:40:00,80.1,62.5,29.95,East,84,1.0,2.0,55,0.00,,,0.00,Wunderground v.1.15,2013-10-09 23:40:00,
2013-10-09 18:50:00,79.1,62.6,29.96,ESE,119,1.0,1.0,57,0.00,,,0.00,Wunderground v.1.15,2013-10-09 23:50:00,
2013-10-09 19:00:00,78.3,63.3,29.96,ESE,118,0.0,0.0,60,0.00,,,0.00,Wunderground v.1.15,2013-10-10 00:00:00,
2013-10-09 19:09:00,77.2,62.7,29.96,ESE,119,0.0,0.0,61,0.00,,,0.00,Wunderground v.1.15,2013-10-10 00:09:00,
2013-10-09 19:15:00,76.5,63.0,29.96,ESE,119,0.0,0.0,63,0.00,,,0.00,Wunderground v.1.15,2013-10-10 00:15:00,
2013-10-09 19:24:00,75.5,62.9,29.96,ESE,119,0.0,0.0,65,0.00,,,0.00,Wunderground v.1.15,2013-10-10 00:24:00,
2013-10-09 19:35:00,74.6,62.5,29.96,ESE,118,0.0,0.0,66,0.00,,,0.00,Wunderground v.1.15,2013-10-10 00:35:00,
2013-10-09 19:45:00,73.7,62.9,29.96,ESE,118,0.0,0.0,69,0.00,,,0.00,Wunderground v.1.15,2013-10-10 00:45:00,
2013-10-09 19:54:00,72.9,62.5,29.96,ESE,118,0.0,0.0,70,0.00,,,0.00,Wunderground v.1.15,2013-10-10 00:54:00,
2013-10-09 20:00:00,72.6,62.7,29.96,ESE,119,0.0,0.0,71,0.00,,,0.00,Wunderground v.1.15,2013-10-10 01:00:00,
2013-10-09 20:10:00,72.1,62.6,29.97,ESE,119,0.0,0.0,72,0.00,,,0.00,Wunderground v.1.15,2013-10-10 01:10:00,
2013-10-09 20:20:00,71.6,62.5,29.97,ESE,118,0.0,0.0,73,0.00,,,0.00,Wunderground v.1.15,2013-10-10 01:20:00,
2013-10-09 20:29:00,71.2,62.5,29.97,ESE,118,0.0,0.0,74,0.00,,,0.00,Wunderground v.1.15,2013-10-10 01:29:00,
2013-10-09 20:35:00,71.1,62.4,29.98,ESE,119,0.0,0.0,74,0.00,,,0.00,Wunderground v.1.15,2013-10-10 01:35:00,
2013-10-09 20:44:00,70.9,62.2,29.98,ESE,118,0.0,0.0,74,0.00,,,0.00,Wunderground v.1.15,2013-10-10 01:44:00,
2013-10-09 20:50:00,70.9,62.2,29.98,ESE,118,0.0,0.0,74,0.00,,,0.00,Wunderground v.1.15,2013-10-10 01:50:00,
2013-10-09 20:59:00,70.6,62.3,29.98,ESE,118,0.0,0.0,75,0.00,,,0.00,Wunderground v.1.15,2013-10-10 01:59:00,
2013-10-09 21:05:00,70.5,62.2,29.99,ESE,113,0.0,0.0,75,0.00,,,0.00,Wunderground v.1.15,2013-10-10 02:05:00,
2013-10-09 21:14:00,70.1,62.2,29.99,ESE,113,0.0,0.0,76,0.00,,,0.00,Wunderground v.1.15,2013-10-10 02:14:00,
2013-10-09 21:25:00,70.0,62.5,29.99,SE,131,0.0,0.0,77,0.00,,,0.00,Wunderground v.1.15,2013-10-10 02:25:00,
2013-10-09 21:35:00,70.0,62.5,29.99,SE,132,0.0,0.0,77,0.00,,,0.00,Wunderground v.1.15,2013-10-10 02:35:00,
2013-10-09 21:45:00,69.8,62.3,30.00,SE,132,0.0,0.0,77,0.00,,,0.00,Wunderground v.1.15,2013-10-10 02:45:00,
2013-10-09 21:55:00,69.8,62.3,30.00,SE,132,0.0,0.0,77,0.00,,,0.00,Wunderground v.1.15,2013-10-10 02:55:00,
2013-10-09 22:05:00,69.9,62.7,30.01,SE,125,0.0,0.0,78,0.00,,,0.00,Wunderground v.1.15,2013-10-10 03:05:00,
2013-10-09 22:15:00,70.3,63.1,30.01,SE,132,0.0,0.0,78,0.00,,,0.00,Wunderground v.1.15,2013-10-10 03:15:00,
2013-10-09 22:25:00,70.2,63.4,30.01,SE,131,0.0,1.0,79,0.00,,,0.00,Wunderground v.1.15,2013-10-10 03:25:00,
2013-10-09 22:35:00,70.4,63.6,30.01,SE,126,0.0,1.0,79,0.00,,,0.00,Wunderground v.1.15,2013-10-10 03:35:00,
2013-10-09 22:45:00,70.3,63.8,30.02,SSE,148,0.0,1.0,80,0.00,,,0.00,Wunderground v.1.15,2013-10-10 03:45:00,
2013-10-09 22:54:00,69.9,63.4,30.02,SE,132,0.0,0.0,80,0.00,,,0.00,Wunderground v.1.15,2013-10-10 03:54:00,
2013-10-09 23:05:00,69.4,63.7,30.02,SE,125,0.0,1.0,82,0.00,,,0.00,Wunderground v.1.15,2013-10-10 04:05:00,
2013-10-09 23:09:00,69.2,63.5,30.02,SE,125,0.0,0.0,82,0.00,,,0.00,Wunderground v.1.15,2013-10-10 04:09:00,
2013-10-09 23:15:00,69.0,63.6,30.02,SE,132,0.0,0.0,83,0.00,,,0.00,Wunderground v.1.15,2013-10-10 04:15:00,
2013-10-09 23:20:00,68.9,63.5,30.02,SE,132,0.0,0.0,83,0.00,,,0.00,Wunderground v.1.15,2013-10-10 04:20:00,
2013-10-09 23:29:00,68.5,63.5,30.02,SE,132,0.0,0.0,84,0.00,,,0.00,Wunderground v.1.15,2013-10-10 04:29:00,
2013-10-09 23:35:00,68.2,63.5,30.02,SE,132,0.0,0.0,85,0.00,,,0.00,Wunderground v.1.15,2013-10-10 04:35:00,
2013-10-09 23:40:00,67.9,63.2,30.02,SE,132,0.0,0.0,85,0.00,,,0.00,Wunderground v.1.15,2013-10-10 04:40:00,
2013-10-09 23:50:00,67.4,63.1,30.02,SE,132,0.0,0.0,86,0.00,,,0.00,Wunderground v.1.15,2013-10-10 04:50:00,